STARLINK-11561, 62908

Orbit data source: Space-Track

STARLINK-11561, 62908 is a payload satellite owned by SpaceX/Seattle (US) in LEO that was launched on Sat, 08 Feb 2025 UTC via an FALCON 9 launch vehicle from the Air Force Eastern Test Range (AFETR). Payload-class satellites include a variety of spacecraft equipped with specific instruments for various scientific and technological missions. These include communications satellites like Starlink; space stations such as the ISS; scientific satellites like the Hubble; Earth observation satellites from companies like Planet Labs, Umbra, and HawkEye 360; GPS; miniature CubeSats for education and research; and military/defense satellites.

Loading next visibility...
Identifier
62908, 2025-027B
Orbit
LEO
Last TLE update
7 hours ago
Origin
Manufacturer
SpaceX/Seattle
Mission
Operational Commercial Communications
Bus & Motor
STARLINK V2M, Unknown motor
Mass
730 kg wet, ~700 kg dry
Launch date (UTC)
2025-02-08 (5 months ago)
Launch vehicle
FALCON 9
Launch site
Air Force Eastern Test Range (AFETR)
Object type
Payload
Rocket body
Debris
Shape & HBR
Box + 2 Pan, 29 m
Radar Cross Section
36.964 m², Large (>1 m²)

Expand to show TLE details & history

TLE from 7 hours ago
0 STARLINK-11561
1 62908U 25027B   25183.92604931  .00216199  00000-0  16398-2 0  9991
2 62908  43.0011  52.9030 0002208 255.3152 104.7471 15.70913927 23878
Epoch: 2025-07-02T22:13Z
TLE epoch observation values (Epoch: 2025-07-02T22:13:30.66Z)
Latitude
-0.00001°
Longitude
158.32509°
Altitude
356.434 km
Speed
7.697 km/s
True Right ascension
03h 31m 36s
True Declination
0° 00' 00"
Sunlit
Object was in daylight at epoch
Visualization orbit readout
Latitude
-42.9908°
Longitude
72.75986°
Altitude
367.748 km
Speed
7.69 km/s
Apparent Right ascension
01h 30m 44s
Apparent Declination
-57° 20' 24"
Sunlit
Object is in full shadow
Visualization observer readout
Local Sidereal Time
17:15:03
Azimuth
135.297° SSE
Elevation
-50.461°
Doppler factor
1
Orbital elements
Apogee altitude
359.753 km
Perigee altitude
356.778 km
Semi-major axis
6,736.402 km
Eccentricity
0.00022
Inclination
43.0011°
RAAN
52.903°
Arg. of periapsis
255.3152°
True anomaly
Unknown
Mean anomaly
104.7471°
Eccentric anomaly
Unknown
Mean motion
3.92556 °/min
Orbital period
91.71 mins
BSTAR
0.0016398
Loading maneuver chart data...
Loading SW <> Apogee altitude chart data...
Loading historical data...
Loading historical data...
Loading historical data...
Loading historical data...
Loading historical data...
Loading historical data...
Loading historical data...

STARLINK-11561 Visibility forecast

Observer location: undefined°, undefined°

Span
Click to sort rows by Start time (UTC) header in descending order
Start Az.
Max El. time (UTC)
Max El. Az.
Max El.
End time (UTC)
End Az.
4 mins2025-07-03 18:15:31.772Z203.16° SW2025-07-03 18:17:31.772Z159.441° S21.303°2025-07-03 18:19:31.772Z103.098° ESE
4 mins2025-07-03 19:52:31.772Z266.192° W2025-07-03 19:53:31.772Z306.166° NW42.823°2025-07-03 19:56:31.772Z69.72° E
4 mins2025-07-03 21:28:31.772Z300.88° NW2025-07-03 21:29:31.772Z331.786° NNW32.128°2025-07-03 21:32:31.772Z74.046° E
4 mins2025-07-03 23:04:31.772Z287.605° WNW2025-07-03 23:06:31.772Z115.303° SE43.196°2025-07-03 23:08:31.772Z110.132° ESE
|